Theta_e
363 365 366 366 365 367 365 369 370 370 372 367 367 364 363 365 367 366 364 360 358 357 353 350 352 354 342 341 342 340 338 337 332 335 339 345 348 347 345 347 347 346 342
362 366 366 368 367 365 367 368 370 371 371 371 370 366 363 364 366 365 362 359 357 355 354 352 350 347 350 351 342 351 344 347 335 340 344 339 346 348 349 348 343 341 341
360 359 362 365 365 366 368 368 369 370 371 369 370 369 366 364 364 364 363 361 358 357 355 353 350 349 348 345 345 343 341 342 342 336 336 341 340 343 344 347 345 346 343
354 356 361 365 366 366 368 369 370 371 371 371 371 372 370 366 364 362 362 364 361 358 357 355 352 348 348 349 346 347 347 342 344 338 336 336 339 344 342 337 338 342 339
359 358 360 365 367 368 368 369 370 370 370 371 371 371 369 367 359 366 365 363 364 360 360 357 354 350 342 346 343 349 352 342 337 337 335 335 334 336 338 337 337 337 341
359 358 362 365 367 368 368 369 370 369 370 371 369 369 368 362 343 340 358 363 364 364 361 358 358 347 344 335 335 337 347 351 346 336 335 336 345 340 339 338 334 333 330
359 361 363 365 366 367 367 368 369 369 369 369 369 369 368 368 334 333 340 363 363 364 364 362 355 352 348 351 335 333 334 335 338 350 345 344 343 344 346 342 339 337 334
359 361 363 364 365 367 368 367 368 368 368 368 367 368 367 367 332 329 336 360 364 366 365 365 363 361 358 354 351 345 343 347 347 343 349 348 349 351 349 344 342 341 340
359 360 362 364 364 366 365 366 365 365 363 363 364 365 367 368 328 324 334 356 358 364 364 366 363 362 345 332 351 350 347 344 333 330 330 333 332 332 337 341 336 334 330
358 360 362 364 366 365 365 365 364 363 361 359 362 364 351 364 333 321 330 353 355 355 363 365 336 355 331 325 349 347 340 341 346 342 341 333 333 336 328 342 337 332 330
356 357 361 364 368 365 367 367 366 364 364 363 359 360 363 361 360 319 319 351 352 354 355 357 358 328 319 318 329 349 343 345 339 345 339 338 341 341 337 338 341 334 326
359 356 360 364 360 358 367 366 366 366 364 362 356 353 357 359 337 323 318 322 343 355 355 353 352 320 315 315 324 326 321 329 343 337 337 337 337 335 335 336 337 333 330
358 360 361 364 362 365 363 363 359 361 356 356 355 351 352 356 356 325 319 316 323 342 357 346 325 312 311 315 319 320 321 341 340 335 335 336 333 335 337 332 333 333 332
357 359 361 361 360 361 359 360 357 356 355 354 353 352 350 350 349 352 333 325 322 330 326 328 321 322 321 324 323 323 335 338 339 337 336 334 335 332 326 327 323 323 321
357 358 359 359 359 360 360 349 357 362 342 353 354 354 353 353 354 336 334 337 336 329 328 330 331 332 329 326 328 330 334 334 333 337 335 333 330 326 324 324 323 322 319
356 354 353 355 357 357 354 341 306 305 301 300 309 329 353 312 308 307 306 308 311 312 330 331 333 332 330 330 328 328 331 332 336 336 335 331 325 324 323 324 323 321 319
353 350 349 345 351 351 351 341 336 323 304 300 300 299 302 305 303 303 302 303 306 314 328 329 329 332 333 329 329 331 331 332 335 332 331 328 327 324 322 323 321 321 319
348 325 349 349 350 348 347 344 342 339 336 333 307 304 298 298 298 298 301 309 320 322 333 331 332 332 331 330 330 332 330 333 334 330 328 326 325 324 323 322 322 319 316
345 342 344 343 343 339 341 339 338 335 334 333 332 316 305 295 296 299 305 331 326 328 334 334 335 331 332 332 332 329 332 331 330 328 326 325 326 325 323 322 320 308 309
339 326 332 338 337 337 336 334 333 336 336 330 332 332 322 322 327 323 328 329 326 328 332 334 333 331 331 328 330 332 332 328 328 327 326 326 326 324 321 319 317 312 310
339 339 328 340 339 340 340 337 337 335 332 328 329 326 311 328 328 326 326 331 330 332 334 331 329 328 328 332 331 331 329 327 327 327 326 326 325 321 319 317 313 311 311
339 338 337 335 336 336 335 334 330 328 327 327 328 320 302 331 329 328 330 333 333 332 332 332 331 333 332 332 331 329 327 325 327 326 325 323 321 320 316 312 312 311 310
338 339 336 335 336 326 332 333 332 332 330 328 326 325 327 326 327 328 329 330 332 334 336 335 335 332 333 331 330 328 326 325 325 324 322 320 318 315 313 312 311 310 309
336 335 335 334 334 333 333 333 332 322 326 324 326 329 332 334 334 334 334 334 334 333 332 330 330 328 327 326 325 324 324 323 323 322 321 318 315 311 313 312 311 310 309
331 331 332 332 330 329 331 331 331 331 332 331 330 330 330 332 330 330 330 329 329 328 327 327 326 326 325 324 323 322 304 301 315 308 318 317 315 315 312 311 311 309 308
324 323 320 320 319 322 325 325 326 327 328 327 326 328 328 327 327 328 326 326 326 326 326 326 326 325 325 323 322 302 289 293 307 295 314 315 313 312 311 310 310 307 307
Wind_Speed
22 21 20 19 21 19 18 17 17 15 14 15 14 15 15 14 14 14 12 12 13 12 11 11 12 10 9 8 7 7 7 7 7 4 3 6 6 6 4 6 6 6 6
21 21 22 20 20 20 19 19 18 17 16 16 15 16 16 16 15 15 16 14 15 15 14 13 14 11 12 9 8 8 8 7 8 7 4 6 8 8 7 5 6 6 5
22 23 21 21 21 21 21 20 20 19 19 19 18 18 17 17 17 17 17 17 17 16 16 16 15 15 13 11 11 9 9 8 8 8 7 7 5 7 8 8 7 8 6
23 23 22 22 23 21 20 20 20 19 19 19 19 18 18 18 18 19 18 17 18 17 17 17 17 16 15 14 12 11 8 9 9 8 8 7 7 6 6 7 8 9 6
20 21 21 21 20 18 19 20 19 19 19 19 19 19 19 18 17 19 19 18 17 18 18 17 18 17 17 15 12 12 11 11 10 10 10 9 8 8 8 8 7 6 5
19 22 20 19 19 20 19 20 19 20 20 19 20 20 21 17 21 21 20 18 19 18 17 17 16 16 15 15 16 10 13 12 12 10 10 10 8 7 7 6 7 6 7
20 18 19 18 19 19 18 17 18 19 18 20 21 21 21 21 19 23 24 19 18 17 17 16 16 14 17 18 16 15 12 13 12 10 11 9 8 9 8 6 7 5 8
19 19 18 19 19 17 18 21 20 18 19 18 18 18 18 17 16 20 24 22 18 18 18 18 18 17 18 19 18 19 19 16 15 12 11 10 11 6 8 8 7 7 7
19 20 20 19 18 18 21 20 15 15 16 16 15 16 17 17 13 15 17 20 20 19 19 21 22 20 17 22 18 17 17 15 12 13 3 3 6 2 3 8 8 8 6
21 21 17 17 18 19 17 15 13 15 15 13 14 15 15 16 10 12 15 15 18 17 20 19 17 20 17 21 18 14 15 14 11 11 11 5 6 8 6 10 7 7 7
15 17 16 16 15 14 14 14 14 15 14 16 17 18 18 15 16 22 24 20 19 16 15 14 15 20 13 21 20 14 13 11 11 10 7 7 10 10 8 10 8 6 6
13 15 14 14 13 14 15 14 15 15 16 16 16 16 12 17 21 24 23 26 23 19 17 13 12 24 24 17 15 9 9 8 6 7 5 7 9 9 10 9 8 6 2
13 13 13 14 14 12 15 14 13 15 14 15 16 13 10 10 11 21 19 24 28 18 16 10 10 17 13 15 13 10 10 6 7 8 9 9 9 10 8 8 7 6 4
13 13 12 13 14 14 12 12 12 13 13 13 14 15 15 13 12 9 7 11 23 20 2 5 11 9 14 22 20 12 9 9 10 9 10 8 8 9 9 9 8 8 8
13 12 13 12 13 12 8 2 10 12 5 12 13 13 12 13 10 10 14 11 12 12 11 9 11 12 16 12 12 18 14 10 9 10 7 9 10 10 10 9 8 6 7
10 9 8 7 9 8 8 5 14 13 12 12 9 7 6 9 10 14 13 16 19 24 11 10 10 8 6 8 10 10 10 14 10 11 10 9 10 11 10 9 8 7 7
6 7 6 5 6 7 7 5 5 6 14 18 16 16 10 10 15 16 13 15 11 8 5 4 7 8 8 9 11 12 10 10 11 10 9 10 10 11 10 9 8 7 6
11 9 6 5 5 5 6 6 6 6 6 4 10 10 10 11 14 15 14 11 5 3 1 3 5 6 7 9 9 10 9 9 9 10 11 12 11 10 9 9 7 7 6
8 6 6 6 5 7 5 5 5 5 5 6 5 4 10 12 12 10 5 5 4 6 4 5 7 6 7 8 9 8 10 11 11 12 11 11 11 10 9 8 6 1 2
9 10 8 6 8 7 5 6 4 2 1 4 5 5 4 4 4 4 5 5 6 5 5 6 6 7 7 7 6 8 10 12 12 10 10 11 10 9 8 8 7 7 7
6 6 3 5 5 5 3 2 3 4 2 4 4 5 8 6 6 5 5 6 5 5 7 5 5 7 6 7 9 11 10 10 10 11 10 9 9 8 7 6 7 7 6
7 6 7 7 7 7 6 7 6 5 3 5 5 5 6 4 5 5 6 6 5 4 4 5 6 8 9 10 10 10 10 10 10 9 9 9 9 8 7 7 7 7 7
9 10 9 9 9 6 6 6 5 7 4 5 6 5 5 4 5 6 7 7 7 8 9 10 10 10 9 9 9 9 10 10 9 9 9 9 8 8 8 8 8 8 8
10 10 11 10 9 8 8 9 8 8 6 4 4 7 7 8 7 8 8 9 8 9 9 8 9 12 10 9 8 8 6 6 7 8 9 9 9 8 8 8 9 9 8
14 12 12 11 12 10 9 9 8 7 7 8 6 4 5 4 6 7 8 8 9 9 10 10 10 14 15 13 10 10 12 9 4 6 8 9 10 11 10 9 9 8 9
14 14 12 11 12 11 10 9 9 9 7 7 6 6 7 3 4 3 5 7 7 7 9 8 11 15 15 12 12 16 10 10 7 3 6 8 8 9 10 9 10 8 9
Wind_Direction
202 203 206 207 208 210 214 211 213 213 206 213 203 210 210 207 204 204 216 209 209 215 217 208 212 225 225 214 216 222 221 226 240 215 243 158 207 232 224 215 227 240 239
204 202 203 204 206 208 210 210 207 211 207 204 206 206 208 209 205 208 211 210 209 213 211 214 217 211 217 236 220 221 220 216 247 231 243 206 211 203 234 236 264 266 275
204 204 206 207 205 206 206 208 206 204 206 206 204 204 205 208 207 210 215 216 214 215 213 212 216 215 208 218 221 210 220 222 216 254 238 215 235 209 208 226 236 241 251
204 208 208 207 207 206 206 206 207 205 204 204 204 203 204 205 208 213 213 217 218 216 216 217 216 215 214 209 209 222 221 219 216 231 240 237 210 209 229 252 220 214 239
203 208 208 211 210 206 207 207 208 207 206 207 204 203 205 208 209 211 213 214 218 218 216 216 219 216 212 209 209 208 206 213 225 214 231 235 228 211 217 232 236 278 253
205 208 209 207 206 207 207 208 207 208 207 207 209 207 206 209 207 197 210 214 216 216 215 215 222 202 208 199 215 222 205 210 225 231 230 237 239 234 243 256 261 282 280
211 206 207 207 206 207 207 210 213 212 210 211 211 210 212 215 198 192 196 217 215 213 213 212 212 218 207 213 214 220 220 208 238 223 246 258 245 229 251 212 249 256 268
204 206 205 205 207 202 204 209 210 207 212 216 218 219 220 221 200 195 194 214 223 218 216 213 212 212 202 205 207 212 223 215 211 225 230 238 243 256 225 229 249 253 254
206 208 205 203 201 201 208 211 209 212 215 220 223 225 228 235 199 200 195 215 226 226 221 217 211 212 201 185 201 202 207 214 199 208 216 116 106 112 215 225 218 238 251
206 208 202 202 203 206 206 206 206 210 214 212 215 222 230 238 213 191 202 234 232 230 230 230 212 216 193 178 198 193 194 200 194 185 204 157 181 192 204 240 240 233 235
207 206 204 205 204 204 201 200 199 201 204 205 203 201 198 214 210 179 191 218 236 235 235 220 218 208 183 178 192 197 197 175 195 176 171 197 199 201 196 216 221 253 246
209 206 201 199 200 195 200 197 198 199 204 207 204 212 196 198 207 194 197 209 227 244 251 228 211 179 165 178 202 201 204 177 159 163 152 201 203 194 207 191 200 224 170
195 195 193 192 196 199 188 195 198 204 215 211 214 230 220 224 203 208 169 184 220 238 247 250 169 162 162 143 254 191 186 173 178 172 171 205 200 210 166 168 177 182 189
185 190 187 187 188 191 186 195 206 205 209 218 220 235 237 225 222 207 182 191 219 228 116 98 116 134 139 166 153 182 182 185 172 203 182 194 192 169 180 185 189 193 217
177 179 179 185 186 180 183 231 217 213 246 225 230 244 244 243 232 164 172 191 201 197 170 160 145 163 153 170 170 175 173 171 173 185 186 191 175 181 192 190 207 197 223
171 173 172 158 166 175 168 121 51 38 24 20 14 8 336 14 132 157 171 168 171 166 180 173 177 197 204 199 165 161 162 156 180 186 174 169 178 190 190 190 205 213 220
129 124 136 141 159 157 154 161 129 68 62 43 28 25 7 159 153 160 149 141 153 158 175 203 204 219 204 171 161 156 168 164 174 168 167 172 183 190 188 188 201 215 220
90 67 120 124 136 133 138 149 150 143 133 112 53 36 55 63 75 84 90 100 118 328 178 210 207 166 166 159 157 151 156 165 166 165 177 180 185 190 190 207 199 209 218
87 72 95 100 112 112 130 133 123 144 140 125 141 119 60 56 65 79 120 149 169 201 210 176 166 148 143 154 156 160 157 163 172 177 176 182 187 194 194 205 193 339 202
79 71 81 115 118 122 139 140 159 192 235 165 190 163 127 167 170 167 197 180 183 189 182 159 146 132 148 160 150 148 165 172 175 173 178 187 190 200 198 196 197 178 199
88 106 44 132 134 143 146 85 35 38 224 179 135 155 153 191 177 186 191 179 182 141 128 118 125 133 148 165 165 173 161 166 171 185 179 182 186 197 205 183 195 194 205
100 81 81 84 95 89 95 97 96 100 117 125 132 126 187 202 159 181 188 187 156 117 113 146 160 165 161 168 168 163 167 175 183 184 178 183 184 198 188 193 195 194 200
78 94 85 77 83 104 67 58 71 100 97 94 108 134 160 172 176 172 177 172 174 177 174 178 174 163 161 157 164 162 172 173 176 183 181 189 187 192 186 195 195 202 210
55 68 80 73 63 76 85 96 104 113 109 120 154 195 167 164 157 145 147 145 148 149 152 155 159 148 147 148 141 156 167 162 170 181 192 189 191 174 192 196 202 213 206
48 40 49 56 58 34 38 56 66 68 107 139 136 95 91 84 133 141 134 147 150 154 155 159 156 150 152 157 153 128 99 104 165 145 192 192 199 180 205 196 206 202 214
56 60 52 45 43 41 50 42 41 39 46 65 65 54 38 55 59 110 149 150 154 155 159 165 160 160 156 159 157 124 123 123 140 194 209 196 197 189 203 206 198 218 204